Regional Weather Roundup
Issued by NWS

Home | Current Version | Previous Version | Graphics & Text | Print | Product List | Glossary On
Versions: 1 2 3 4 5 6 7 8 9 10 11 12 13 14 15 16 17 18 19 20 21 22 23 24 25 26 27 28 29 30 31 32 33 34 35 36 37 38 39 40 41 42 43 44 45 46 47 48 49 50
000
ASUS43 KMKX 281721
RWRWI

WISCONSIN REGIONAL WEATHER ROUNDUP
NATIONAL WEATHER SERVICE MILWAUKEE/SULLIVAN WI
1200 PM CDT SUN AUG 28 2016

NOTE: "FAIR" INDICATES FEW OR NO CLOUDS BELOW 12,000 FEET WITH NO
SIGNIFICANT WEATHER AND/OR OBSTRUCTIONS TO VISIBILITY.

WIZ001-002-006>008-014>016-023>028-281800-
NORTHWEST WISCONSIN

CITY           SKY/WX    TMP DP  RH WIND       PRES   REMARKS
SUPERIOR ARPT  CLOUDY    66  62  87 S3        30.18S
ASHLAND        CLOUDY    67  62  84 VRB5      30.20R
HAYWARD        CLOUDY    68  61  78 VRB5      30.20S
SIREN          MOSUNNY   69  65  85 SE7       30.18F
CUMBERLAND       N/A     63  63 100 SE7       30.20S
RICE LAKE      CLOUDY    65  64  97 SE8       30.21F
CHETEK         NOT AVBL
LADYSMITH      CLOUDY    71  64  80 S5        30.23S
EAU CLAIRE     CLOUDY    71  66  84 SE6       30.20S
MENOMONIE      CLOUDY    72  68  88 SE8       30.19F
NEW RICHMOND   CLOUDY    71  68  90 SE9       30.17S
OSCEOLA        CLOUDY    68  68 100 E5        30.20R
$$

WIZ003>005-009-010-017-018-281800-
NORTH CENTRAL WISCONSIN

CITY           SKY/WX    TMP DP  RH WIND       PRES   REMARKS
MANITOWISH WTR NOT AVBL
ARBOR VITAE    SUNNY     72  62  71 CALM      30.22S
WOODRUFF       SUNNY     72  62  71 CALM      30.22S
RHINELANDER    SUNNY     71  60  68 CALM      30.23F
EAGLE RIVER    SUNNY     71  58  64 NE3       30.22F
LAND O LAKES   SUNNY     72  57  59 CALM      30.23F
PHILLIPS       MOSUNNY   69  62  77 S6        30.22R
TOMAHAWK       SUNNY     70  60  69 SE3       30.24S
MEDFORD        CLOUDY    70  64  82 S3        30.23S
MERRILL        CLOUDY    72  61  67 CALM      30.23F
$$

WIZ029-030-035-036-043>047-281800-
CENTRAL WISCONSIN

CITY           SKY/WX    TMP DP  RH WIND       PRES   REMARKS
WAUSAU         CLOUDY    71  61  70 S7        30.21F
MOSINEE        PTSUNNY   70  63  78 S3        30.25S
MARSHFIELD     CLOUDY    73  63  70 SW6       30.23S
STEVENS POINT  CLOUDY    69  62  76 SW5       30.25R
WAUPACA        PTSUNNY   75  63  66 CALM      30.23S
WAUTOMA        CLOUDY    74  65  73 VRB3      30.23F
WISC RAPIDS    PTSUNNY   75  64  68 S7        30.24S
CAMP DOUGLAS   PTSUNNY   72  66  83 VRB6      30.23S
$$

WIZ011>013-019>022-031-037>040-048>050-281800-
NORTHEAST WISCONSIN

CITY           SKY/WX    TMP DP  RH WIND       PRES   REMARKS
ANTIGO         MOSUNNY   72  61  69 CALM      30.24S
SHAWANO        MOSUNNY   76  61  61 W5        30.22S
OCONTO         NOT AVBL
STURGEON BAY   PTSUNNY   73  61  64 VRB5      30.22S
GREEN BAY      SUNNY     74  64  71 CALM      30.22S
MANITOWOC      PTSUNNY   73  63  68 NW6       30.23S
APPLETON       PTSUNNY   73  61  64 VRB3      30.22S
CLINTONVILLE   MOSUNNY   73  59  60 S3        30.23S
OSHKOSH        CLOUDY    75  63  66 VRB5      30.23S
$$

WIZ032>034-041-042-053>061-281800-
SOUTHWEST WISCONSIN

CITY           SKY/WX    TMP DP  RH WIND       PRES   REMARKS
LA CROSSE      CLOUDY    74  68  81 CALM      30.21R
SPARTA         CLOUDY    74  67  77 SE7       30.22S
VIROQUA        CLOUDY    72  67  85 E3        30.24R
BOSCOBEL       PTSUNNY   77  69  76 VRB6      30.20F
PRAIRIE DU CHI MOSUNNY   79  67  67 SE3       30.18S HX  81
PLATTEVILLE    MOSUNNY   79  72  78 E5        30.21S HX  82
$$

WIZ056-057-062-063-064-067-068-281800-
SOUTH CENTRAL WISCONSIN

CITY           SKY/WX    TMP DP  RH WIND       PRES   REMARKS
REEDSBURG      NOT AVBL
BARABOO/DELLS  CLOUDY    69  66  89 CALM      30.24S
LONE ROCK      PTSUNNY   73  69  87 E8        30.22S
MINERAL POINT  PTSUNNY   79  70  73 CALM      30.21F HX  81
MADISON        CLOUDY    71  66  84 E8        30.23R
MIDDLETON      CLOUDY    70  70 100 E7        30.24S
WATERTOWN      CLOUDY    69  69  98 E3        30.23F
MONROE         PTSUNNY   79  68  69 CALM      30.22S HX  81
JANESVILLE     PTSUNNY   81  68  65 VRB5      30.21S HX  83
$$

WIZ051-052-058>065-066-070>072-281800-
SOUTHEAST WISCONSIN

CITY           SKY/WX    TMP DP  RH WIND       PRES   REMARKS
MILWAUKEE      CLOUDY    72  65  78 NE7       30.23S
WAUKESHA       MOSUNNY   72  66  83 NE6       30.25S
MILWAUKEE/TIMM MOSUNNY   72  64  78 NE3       30.24F
RACINE         CLOUDY    71  65  81 NE7       30.24F
BURLINGTON     SUNNY     78  65  64 CALM      30.22S HX  80
KENOSHA        SUNNY     76  68  76 E9        30.23S
FOND DU LAC    PTSUNNY   76  65  68 NW6       30.23S
SHEBOYGAN      MOSUNNY   75  63  66 S5        30.22S
WEST BEND      MOSUNNY   72  64  78 S3        30.23S
JUNEAU         CLOUDY    70  65  86 SE3       30.25S
$$

LSZ147-162-281800-
LAKE SUPERIOR

STATION/POSITION TIME  TEMP    WIND        PRES    WAVE
                       AIR SEA DIR/SP/G            HT/PER
                 (UTC) (F)     (DEG/KT/KT) (MB)    (FT/S)
W MID LAKE BUOY  1650   66 67  220/  8/ 10 1021.9R   1
DEVILS ISLAND    1700   64     200/  3/  4 1022.3S
PORT WING        1640   65     300/  4/  5 1022.4R
SAXON HARBOR     1640   69      30/  2/  2 1022.0S
$$

LMZ867-665-643>646-281800-
LAKE MICHIGAN

STATION/POSITION TIME  TEMP    WIND        PRES    WAVE
                       AIR SEA DIR/SP/G            HT/PER
                 (UTC) (F)     (DEG/KT/KT) (MB)    (FT/S)
CHAMBERS ISLAND  1600   72     200/  4/  6 1022.7R
S GREEN BAY BUOY 1500   68 71  250/  6/  8 1022.2R
N MID LAKE BUOY  1650   68 71  250/  8/ 10 1022.3R   1/ 3
NORTHPORT PIER   1600   72     310/  7/ 11 1022.4R
SISTER BAY       1452   74     290/ 10/ 11   N/A
KEWAUNEE LAKESHO 1600   64     150/  2/  4 1022.9R
SHEBOYGAN LAKESH 1700   64     170/ 10/ 11 1023.1S
PORT WASHINGTON  1600   71     190/  6/  8 1024.4S
ATWATER BUOY     1700   66     350/  6/  6   N/A
MILWAUKEE LAKESH 1610   66      40/  4/  5   N/A
S MID LAKE BUOY  1650   72 75   50/ 10/ 10 1022.8R   1
KENOSHA   LAKESH 1700   65      30/  9/ 12 1023.4R
$$

TC  - TEMPERATURE IN CELSIUS
VSB - VISIBILITY IN STATUTE MILES
WCI - WIND CHILL INDEX
HX  - HEAT INDEX





USA.gov is the U.S. government's official web portal to all federal, state and local government web resources and services.